Weather in Aniva

Russia / Sakhalin District     46°42′47″N   142°31′35″E
temp.,
°C
wind,
m/s
gust,
m/s
humid.,
%
clouds,
%
prec.,
mm/h
press.,
hPa
HPBL,
m
28 october, thu
thu2823:00+9ssw2292100 0.2 101040
02:00+9wnw2389100 0.3 100979
05:00+9ene1193100 2.0 100864
08:00+9ene3495100 2.0 1007139
11:00+10sse6891100 2.5 1007513
14:00+11sse3481100 0.9 1007384
17:00+10ene3484100 1.6 1007249
20:00+8n4692100 0.4 1009235
29 october, fri
fri2923:00+6n91589100 3.7 1011989
02:00+5n101791100 3.2 1014964
05:00+6n101584100 3.6 1017856
08:00+5n8138145 0.0 1019821
11:00+6n7107221 0.0 1021906
14:00+9n566110 0.0 10211202
17:00+9nnw46623 0.0 1021790
20:00+4n22803 0.0 1023104
30 october, sat
sat3023:00+2nw22870 0.0 102467
02:00+2nnw22860 0.0 102465
05:00+1nw22830 0.0 102461
08:00+1nw11750 0.0 102450
11:00+5s11590 0.0 1025207
14:00+9s33570 0.0 1024406
17:00+9s22680 0.0 102491
20:00+6wnw017941 0.0 102444
31 october, sun
sun3123:00+5nne0184100 0.0 102442
02:00+5nne1187100 0.0 102445
05:00+6nne1188100 0.0 102337
08:00+7ene0190100 0.0 102340
11:00+9sse2387100 0.0 1022234
14:00+9sse3490100 0.0 1020158
17:00+9sse2394100 0.7 1019142
20:00+7nne6893100 0.1 1020335
1 november, mon
mon123:00+6nne5890100 0.4 1020422
02:00+6n5986100 0.1 1021555
05:00+5n478685 0.2 1022514
08:00+4n248875 0.2 1024296
11:00+5nne337868 0.4 1026705
14:00+6ene326683 0.3 10261037
17:00+4e2278100 0.4 1027661
20:00+3e228193 0.2 1029366